Simultaneous Nadir Overpasses (SNOs) Predictions

Prediction of SNOs between METOP-B and NOAA-19 Satellite Orbit:

Table of predicted SNOs for the next 14.0 days since TLE Epoch: 8/21/2020
Index Date (METOP-B) Time (METOP-B) Lat,Lon (METOP-B) SZA (METOP-B ) Date (NOAA-19) Time (NOAA-19) Lat,Lon (NOAA-19) SZA (NOAA-19 ) Distance(km) Time Diff (sec)
1 08/26/2020 23:43:39 -80.15, 27.67 109.05 08/26/2020 23:42:26 -80.16, 27.66 109.06 1.44 73
2 08/27/2020 00:34:20 80.14,-165.08 70.95 08/27/2020 00:33:29 80.16,-165.10 70.96 2.30 51
3 08/27/2020 01:25:01 -80.14, 2.20 109.05 08/27/2020 01:24:26 -80.15, 2.33 109.04 2.96 35
4 08/27/2020 02:15:40 80.16, 169.74 71.00 08/27/2020 02:15:28 80.15, 169.57 70.98 3.31 12
5 08/27/2020 03:06:21 -80.15, -22.98 109.00 08/27/2020 03:06:25 -80.14, -23.00 109.01 1.45 4
6 08/27/2020 03:57:02 80.14, 144.26 71.01 08/27/2020 03:57:28 80.14, 144.25 71.01 0.63 26
7 08/27/2020 04:47:43 -80.14, -48.46 108.99 08/27/2020 04:48:25 -80.13, -48.34 108.98 2.62 42
8 08/27/2020 05:38:24 80.13, 118.78 71.01 08/27/2020 05:39:28 80.13, 118.92 71.04 2.67 64
